Location: Gand�
(15.0971°N, 12.6564°W)
Time: 13:26:00
(UTC+00:00)

Cosmos 1726 Rocket - Pass Details

Date: 07 August 2020
Orbit: 602 x 631 km, 82.5° (Epoch: 19 September)

Event Time Altitude Azimuth Distance (km) Brightness Sun altitude
Exits shadow 04:31:58 45° 100° (E) 846 4.4 -28.2°
Maximum altitude 04:32:08 46° 93° (E) 843 4.5 -28.2°
Drops below altitude 10° 04:36:22 10° 20° (NNE) 2,000 6.7 -27.3°
Sets 04:38:40 0° 14° (NNE) 2,910 7.6 -26.8°
